Regional Weather Roundup
Issued by NWS Goodland, KS

Home | Current Version | Previous Version | Graphics & Text | Print | Product List | Glossary On
Versions: 1 2 3 4 5 6 7 8 9 10 11 12 13 14 15 16 17 18 19 20 21 22 23 24 25 26 27 28 29 30 31 32 33 34 35 36 37 38 39 40 41 42 43 44 45 46 47 48 49 50
000
ASUS43 KGLD 271559
RWRGLD

GOODLAND FORECAST AREA HOURLY WEATHER ROUNDUP
NATIONAL WEATHER SERVICE GOODLAND KS
1000 AM MDT WED MAY 27 2015

...OFFICIAL OBSERVATIONS...

CITY           SKY/WX    TMP DP  RH WIND       PRES   REMARKS
GOODLAND KS    PTSUNNY   65  56  72 S17       30.08F
HILL CITY KS   CLOUDY    69  54  58 SE8       30.09S
IMPERIAL NEB   CLOUDY    65  54  67 S13       30.08F
MCCOOK NEB     CLOUDY    71  51  49 SE14      30.08F
AKRON CO       MOSUNNY   67  50  54 S14       30.07F
BURLINGTON CO  MOSUNNY   68  55  63 S15       30.09F
LIMON CO       SUNNY     63  50  62 S14       30.11F
$$

...UNOFFICIAL OBSERVATIONS...

CITY           SKY/WX    TMP DP  RH WIND       PRES   REMARKS
COLBY KS       LGT RAIN  61  61 100 SE9       30.10F
GOVE KS          N/A     62  32  32 MISG        N/A
LENORA KS        N/A     68  32  26 MISG        N/A
NORTON KS      SUNNY     70  48  46 SE12      30.08F
SHARON SPRINGS   N/A     64  58  82 MISG        N/A
TRENTON NEB      N/A     66  32  28 S15         N/A
KIT CARSON CO    N/A     66  57  73 MISG        N/A
$$



USA.gov is the U.S. government's official web portal to all federal, state and local government web resources and services.